| time (UTC) | temp C | wind direction | speed KPH | gust KPH | rain 1hr cm | rain 24hr cm | rain mn cm | humidity % | barometer mb |
| 20260505124530 | 12 | 34 | 1.6 | 12.9 | 0.00 | 0.08 | 0.00 | 61 | 994.3 |
| 20260505123025 | 12 | 295 | 0.0 | 1.6 | 0.00 | 0.08 | 0.00 | 71 | 994.1 |
| 20260505121524 | 12 | 327 | 0.0 | 3.2 | 0.00 | 0.08 | 0.00 | 67 | 994.1 |
| 20260505120023 | 12 | 307 | 0.0 | 3.2 | 0.00 | 0.08 | 0.00 | 63 | 994.2 |
| 20260505114532 | 12 | 296 | 0.0 | 0.0 | 0.00 | 0.08 | 0.00 | 67 | 994.1 |
| 20260505113019 | 12 | 296 | 0.0 | 0.0 | 0.00 | 0.08 | 0.00 | 66 | 994.2 |
| 20260505111519 | 12 | 295 | 0.0 | 0.0 | 0.00 | 0.08 | 0.00 | 66 | 994.1 |
| 20260505101512 | 13 | 286 | 0.0 | 0.0 | 0.00 | 0.08 | 0.00 | 59 | 994.1 |
| 20260505100013 | 13 | 285 | 0.0 | 3.2 | 0.00 | 0.08 | 0.00 | 53 | 994.1 |
| 20260505094509 | 13 | 281 | 0.0 | 6.4 | 0.00 | 0.08 | 0.00 | 54 | 994.5 |
| 20260505093008 | 13 | 309 | 0.0 | 1.6 | 0.00 | 0.08 | 0.00 | 61 | 994.6 |
| 20260505091507 | 13 | 304 | 0.0 | 0.0 | 0.00 | 0.08 | 0.00 | 61 | 994.4 |
| 20260505090006 | 13 | 302 | 0.0 | 4.8 | 0.00 | 0.08 | 0.00 | 61 | 994.3 |
| 20260505084504 | 13 | 297 | 0.0 | 3.2 | 0.00 | 0.08 | 0.00 | 60 | 994.4 |
| 20260505083005 | 13 | 300 | 0.0 | 1.6 | 0.00 | 0.08 | 0.00 | 60 | 994.5 |
| 20260505081503 | 13 | 325 | 0.0 | 3.2 | 0.00 | 0.08 | 0.00 | 60 | 994.5 |
| 20260505080002 | 13 | 310 | 0.0 | 3.2 | 0.00 | 0.08 | 0.00 | 60 | 994.6 |
| 20260505074612 | 13 | 309 | 0.0 | 4.8 | 0.00 | 0.08 | 0.00 | 60 | 994.4 |
| 20260505073104 | 13 | 297 | 0.0 | 4.8 | 0.00 | 0.08 | 0.00 | 59 | 994.3 |
| 20260505071558 | 14 | 322 | 0.0 | 6.4 | 0.00 | 0.08 | 0.00 | 60 | 994.2 |
| 20260505070058 | 14 | 297 | 1.6 | 22.5 | 0.00 | 0.08 | 0.00 | 60 | 994.1 |
| 20260505064556 | 14 | 240 | 3.2 | 14.5 | 0.00 | 0.08 | 0.00 | 61 | 994.2 |
| 20260505063058 | 14 | 277 | 1.6 | 16.1 | 0.00 | 0.08 | 0.00 | 64 | 994.3 |
| 20260505061618 | 14 | 245 | 4.8 | 16.1 | 0.00 | 0.08 | 0.00 | 63 | 994.1 |
| 20260505060053 | 14 | 305 | 3.2 | 16.1 | 0.00 | 0.08 | 0.00 | 60 | 994.3 |
| 20260505054601 | 15 | 158 | 8.0 | 20.9 | 0.00 | 0.08 | 0.08 | 57 | 994.2 |
| 20260505053047 | 15 | 271 | 4.8 | 12.9 | 0.00 | 0.08 | 0.08 | 54 | 994.2 |
| 20260505051546 | 15 | 253 | 4.8 | 14.5 | 0.00 | 0.08 | 0.08 | 54 | 994.0 |
| 20260505041543 | 17 | 309 | 1.6 | 16.1 | 0.00 | 0.08 | 0.08 | 47 | 993.1 |
| 20260505040044 | 17 | 293 | 3.2 | 14.5 | 0.00 | 0.08 | 0.08 | 46 | 993.1 |
| 20260505034545 | 17 | 259 | 3.2 | 11.3 | 0.00 | 0.08 | 0.08 | 44 | 992.8 |
| 20260505033049 | 17 | 281 | 0.0 | 4.8 | 0.00 | 0.08 | 0.08 | 41 | 992.5 |
| 20260505031541 | 17 | 288 | 0.0 | 3.2 | 0.00 | 0.08 | 0.08 | 40 | 992.4 |
| 20260505030043 | 18 | 281 | 1.6 | 6.4 | 0.00 | 0.08 | 0.08 | 39 | 992.2 |
| 20260505024602 | 18 | 280 | 1.6 | 4.8 | 0.00 | 0.08 | 0.08 | 38 | 992.0 |
| 20260505023041 | 18 | 285 | 0.0 | 3.2 | 0.00 | 0.08 | 0.08 | 36 | 991.9 |
| 20260505021549 | 19 | 312 | 0.0 | 3.2 | 0.00 | 0.08 | 0.08 | 37 | 991.9 |
| 20260505020045 | 19 | 283 | 0.0 | 8.0 | 0.00 | 0.08 | 0.08 | 36 | 991.7 |
| 20260505014538 | 18 | 314 | 0.0 | 3.2 | 0.00 | 0.08 | 0.08 | 39 | 991.8 |
| 20260505013035 | 18 | 316 | 0.0 | 1.6 | 0.00 | 0.08 | 0.08 | 42 | 991.8 |
| 20260505011547 | 19 | 316 | 0.0 | 0.0 | 0.00 | 0.08 | 0.08 | 41 | 991.8 |
| 20260505010033 | 19 | 316 | 0.0 | 1.6 | 0.00 | 0.08 | 0.08 | 38 | 991.8 |
| 20260505004541 | 19 | 315 | 0.0 | 0.0 | 0.00 | 0.08 | 0.08 | 38 | 991.9 |
| 20260505003032 | 19 | 322 | 0.0 | 6.4 | 0.00 | 0.08 | 0.08 | 36 | 992.0 |
| 20260505001531 | 19 | 327 | 0.0 | 9.7 | 0.00 | 0.08 | 0.08 | 36 | 992.1 |
| 20260505000028 | 20 | 167 | 0.0 | 9.7 | 0.00 | 0.08 | 0.08 | 37 | 992.1 |
| 20260504234526 | 19 | 328 | 1.6 | 9.7 | 0.00 | 0.08 | 0.08 | 40 | 992.3 |
| 20260504233027 | 18 | 328 | 3.2 | 16.1 | 0.00 | 0.08 | 0.08 | 42 | 992.6 |
| 20260504231525 | 19 | 326 | 1.6 | 8.0 | 0.00 | 0.08 | 0.08 | 44 | 992.6 |
| 20260504230027 | 18 | 325 | 0.0 | 6.4 | 0.08 | 0.08 | 0.08 | 49 | 992.8 |
| 20260504224523 | 17 | 322 | 0.0 | 6.4 | 0.08 | 0.08 | 0.08 | 53 | 992.9 |
| 20260504223027 | 16 | 299 | 3.2 | 9.7 | 0.08 | 0.08 | 0.08 | 59 | 993.0 |
| 20260504221525 | 16 | 294 | 0.0 | 16.1 | 0.08 | 0.08 | 0.08 | 57 | 993.5 |
| 20260504220024 | 20 | 311 | 4.8 | 12.9 | 0.00 | 0.00 | 0.00 | 39 | 993.4 |
| 20260504214520 | 21 | 285 | 0.0 | 11.3 | 0.00 | 0.00 | 0.00 | 29 | 992.6 |
| 20260504213022 | 22 | 294 | 3.2 | 11.3 | 0.00 | 0.00 | 0.00 | 26 | 992.4 |
| 20260504211520 | 22 | 298 | 0.0 | 8.0 | 0.00 | 0.00 | 0.00 | 27 | 992.3 |
| 20260504210120 | 23 | 294 | 0.0 | 1.6 | 0.00 | 0.00 | 0.00 | 26 | 992.3 |
| 20260504204519 | 24 | 303 | 1.6 | 6.4 | 0.00 | 0.00 | 0.00 | 25 | 992.4 |
| 20260504203018 | 25 | 302 | 0.0 | 6.4 | 0.00 | 0.00 | 0.00 | 23 | 992.5 |
| 20260504201515 | 25 | 274 | 0.0 | 4.8 | 0.00 | 0.00 | 0.00 | 22 | 992.6 |
| 20260504200017 | 24 | 297 | 0.0 | 4.8 | 0.00 | 0.00 | 0.00 | 24 | 992.8 |
| 20260504194511 | 24 | 314 | 0.0 | 9.7 | 0.00 | 0.00 | 0.00 | 23 | 992.9 |
| 20260504193010 | 26 | 292 | 3.2 | 8.0 | 0.00 | 0.00 | 0.00 | 22 | 993.0 |
| 20260504191513 | 25 | 285 | 1.6 | 8.0 | 0.00 | 0.00 | 0.00 | 22 | 993.1 |
| 20260504190007 | 25 | 290 | 0.0 | 4.8 | 0.00 | 0.00 | 0.00 | 23 | 993.4 |
| 20260504184504 | 25 | 290 | 1.6 | 9.7 | 0.00 | 0.00 | 0.00 | 22 | 993.5 |
| 20260504183002 | 25 | 290 | 1.6 | 6.4 | 0.00 | 0.00 | 0.00 | 23 | 993.7 |
| 20260504181607 | 25 | 298 | 0.0 | 11.3 | 0.00 | 0.00 | 0.00 | 23 | 993.9 |
| 20260504180056 | 25 | 302 | 1.6 | 6.4 | 0.00 | 0.00 | 0.00 | 25 | 994.1 |
| 20260504174553 | 25 | 290 | 0.0 | 6.4 | 0.00 | 0.00 | 0.00 | 26 | 994.2 |
| 20260504173053 | 23 | 280 | 4.8 | 8.0 | 0.00 | 0.00 | 0.00 | 24 | 994.3 |
| 20260504171548 | 23 | 307 | 0.0 | 1.6 | 0.00 | 0.00 | 0.00 | 27 | 994.5 |